Location: Göttingen
(51.5413°N, 9.9158°E)
Time: 18:08:45
(UTC+02:00)

BEESAT - Pass Details

Date: 09 July 2022
Orbit: 700 x 706 km, 98.6° (Epoch: 13 August)

Event Time Altitude Azimuth Distance (km) Brightness Sun altitude
Rises 23:03:07 0° 8° (N) 3,110 ? -9.8°
Reaches altitude 10° 23:05:36 10° 358° (N) 2,188 ? -10.0°
Maximum altitude 23:09:43 30° 298° (WNW) 1,265 ? -10.4°
Drops below altitude 10° 23:13:50 10° 239° (WSW) 2,177 ? -10.7°
Sets 23:16:18 0° 228° (SW) 3,092 ? -10.9°
